www.pogodaiklimat.ru

Погода и климат >> Архив погоды >> Канада >> Нунавут >> Юрика


ПОГОДА в Юрике

  • Прогноз погоды в Юрике
  • Монитор погоды в Юрике

АРХИВ ПОГОДЫ в Юрике

Время (UTC), дата Ветер
(напр.,м/с)
 
Видим.   Явления Облачность Т
(С)
Тd
(С)
f
(%)
Тe
(С)
Тes
(С)
Комфортность P
(гПа)
Po
(гПа)
Тmin
(С)
Tmax
(С)
R
(мм)
R24
(мм)
S
(см)
21 17.05 З 4 24 км 3/0
[]
-4.3 -10.2 63 -10 -7 1029.5 1028.1
00 18.05 З 4 24 км 8/0
[Ci fib]
-5.4 -9.6 72 -12 -10 1029.8 1028.4 -9.0 -4.1
03 18.05 ЮВ 2 24 км 8/0
[]
-7.5 -10.7 78 -12 -11 1030.5 1029.1
06 18.05 С 1 24 км 9/0
[Ci fib]
-8.4 -11.4 79 -9 -8 1030.9 1029.5 21
09 18.05 С 3 24 км ясно -9.0 -12.7 74 -14 -13 1031.5 1030.1
12 18.05 С 2 24 км 8/1 300 м
[St Ac As Ci fib]
-8.0 -12.3 71 -12 -11 1031.9 1030.5 11
15 18.05 З 3 24 км 1/1 200 м
[]
-6.4 -11.5 67 -12 -8 1031.6 1030.2
18 18.05 З 7 24 км 1/0
[Ac lent Ci fib]
-6.0 -10.5 70 -14 -12 1030.9 1029.5 -5.5
21 18.05 С 4 24 км 5/0
[]
-5.8 -11.0 67 -12 -9 1030.7 1029.3
00 19.05 С 5 24 км 8/0
[Ac trans Ci fib]
-7.3 -11.3 73 -15 -14 1030.6 1029.2 -10.1 -4.9
03 19.05 С 4 24 км 10/0
[]
-7.8 -11.8 73 -15 -14 1030.4 1029.0
06 19.05 24 км слаб. снег н/о -8.5 -10.5 85 -12 -12 1030.2 1028.8 0.6 171
09 19.05 СЗ 4 24 км 9/9 1000 м
[]
-8.4 -11.0 81 -15 -15 1030.1 1028.7
12 19.05 З 4 24 км {снег} 9/8 600 м
[Sc Ac As Ci fib]
-7.6 -11.4 74 -14 -14 1030.1 1028.7 0.0 11
15 19.05 З 5 24 км 8/8 300 м
[]
-6.6 -11.2 70 -14 -13 1029.6 1028.2
18 19.05 З 5 24 км 4/1 600 м
[Sc Ac trans Ci fib]
-5.3 -9.8 71 -12 -10 1028.9 1027.5 -5.2
21 19.05 ЮЗ 1 24 км 1/1 600 м
[]
-4.4 -9.2 69 -7 -2 1028.7 1027.3
00 20.05 З 2 24 км ясно -4.5 -9.5 68 -8 -5 1028.6 1027.2 -9.2 -3.8
03 20.05 З 2 24 км 4/4 300 м
[]
-5.4 -10.2 69 -9 -8 1028.6 1027.2
06 20.05 СВ 1 24 км 9/1 300 м
[Sc Ac As Ci fib]
-6.4 -10.4 73 -9 -8 1028.9 1027.5
09 20.05 С 4 24 км 8/8 300 м
[]
-6.8 -9.0 84 -13 -13 1029.2 1027.8
12 20.05 ЮВ 2 24 км 9/1 300 м
[Sc Ac As]
-6.7 -9.7 79 -10 -9 1029.7 1028.3 11
15 20.05 ЮЗ 1 24 км ясно -5.7 -9.4 75 -8 -2 1029.9 1028.5
18 20.05 З 3 24 км 4/4 300 м
[Sc]
-4.3 -8.9 70 -9 -6 1030.1 1028.7 -4.0
21 20.05 СЗ 2 24 км 5/5 600 м
[]
-4.3 -9.6 66 -8 -6 1030.1 1028.7
00 21.05 С 4 24 км ясно -5.1 -9.9 69 -11 -9 1030.5 1029.1 -8.5 -3.4
03 21.05 С 4 24 км ясно -6.8 -9.6 80 -13 -13 1030.7 1029.3
06 21.05 С 4 24 км туман на расстоянии ясно -8.6 -11.0 83 -16 -15 1031.2 1029.8
09 21.05 СЗ 4 24 км ясно -9.8 -12.3 82 -16 -15 1031.8 1030.4
12 21.05 З 5 3200 м дымка ясно -8.3 -9.9 88 -16 -15 1032.3 1030.9 11
15 21.05 З 4 24 км ясно -6.8 -9.4 82 -14 -10 1032.5 1031.1
18 21.05 З 4 24 км ясно -4.0 -8.1 73 -10 -6 1032.3 1030.9 -4.0
21 21.05 С 6 24 км ясно -2.4 -8.9 61 -9 -7 1032.5 1031.1
00 22.05 С 6 24 км ясно -3.8 -9.1 67 -11 -10 1032.8 1031.4 -10.1 -2.2
03 22.05 С 5 24 км ясно -5.3 -10.1 69 -12 -12 1033.2 1031.8
06 22.05 штиль 0 24 км ясно -7.5 -10.5 79 -8 -7 1033.5 1032.1 20
09 22.05 СВ 3 24 км ясно -7.8 -11.3 76 -13 -12 1033.8 1032.4
12 22.05 штиль 0 24 км ясно -7.3 -11.1 74 -8 -4 1033.9 1032.5 11
15 22.05 Ю 2 24 км ясно -6.2 -10.5 72 -10 -4 1033.4 1032.0
18 22.05 ЮЗ 2 24 км ясно -4.1 -9.3 67 -7 -1 1032.8 1031.4 -3.6
21 22.05 Ю 2 24 км ясно -3.2 -8.5 67 -6 -1 1032.5 1031.1
00 23.05 ЮЗ 2 24 км ясно -3.1 -8.2 68 -6 -3 1032.0 1030.6 -8.7 -1.8
03 23.05 СВ 1 24 км ясно -4.5 -9.2 70 -7 -5 1031.5 1030.1
06 23.05 В 1 24 км ясно -6.0 -10.4 71 -8 -7 1031.1 1029.7
09 23.05 С 1 24 км ясно -6.4 -10.7 71 -7 -5 1030.5 1029.1
12 23.05 С 1 24 км ясно -5.2 -10.0 69 -6 -2 1030.0 1028.6 11
15 23.05 Ю 2 24 км ясно -4.1 -9.4 67 -7 -2 1028.8 1027.4
18 23.05 Ю 1 24 км ясно -2.2 -8.6 61 -4 +3 1027.3 1025.9 -2.2
21 23.05 Ю 2 24 км ясно -1.6 -8.1 61 -5 -0 1026.0 1024.6
00 24.05 штиль 0 24 км ясно -1.0 -7.8 60 -2 +2 1024.7 1023.3 -6.8 -0.3
03 24.05 В 1 24 км ясно -2.3 -7.7 66 -4 -3 1023.8 1022.4
06 24.05 СВ 2 24 км ясно -4.6 -8.6 74 -8 -7 1022.9 1021.5
09 24.05 ЮВ 2 24 км ясно -5.2 -8.7 76 -9 -7 1022.4 1021.0
12 24.05 ЮВ 3 24 км ясно -4.2 -8.4 72 -9 -6 1021.7 1020.3 10
15 24.05 Ю 2 24 км 1/0
[]
-1.8 -7.4 66 -5 +1 1020.9 1019.5
18 24.05 ЮЗ 2 24 км ясно +0.6 -6.0 61 -3 +4 1019.7 1018.3 +0.6

 

Местоположение метеостанции Юрика (Нунавут, Канада): широта 79.98 долгота -85.93 высота над уровнем моря 10 м.

В архиве по умолчанию представлена погода в Юрике за последнюю неделю. Архивные данные за месяц целиком и за предыдущие месяцы, начиная с января 2011 года, Вы можете получить, выбрав интересующий диапазон дат из раскрывающегося списка и нажав кнопку "Ввод!".


*Определитесь, кто Вы:
робот инопланетянин человек

Внимание! Время в таблицах - всемирное. Для получения местного времени необходимо прибавить поправку, которая равна -6 ч.

Смотрите также архив погоды в соседних городах и на ближайших метеорологических станциях:

Погода в Юрике (Нунавут, Канада) (1 км)
Погода в Сарнии (Онтарио, Канада) (343 км)
Погода в Исачсене (Нунавут, Канада) (382 км)
Погода в Mittarfik Qaanaaq (Гренландия) (452 км)
Погода в Kitsissut (Гренландия) (471 км)
Погода в Алерте (Нунавут, Канада) (483 км)
Погода в Аэропорту Ресольют Бэй (Нунавут, Канада) (623 км)
Погода в Ресольют Бэй (Нунавут, Канада) (623 км)
Погода в Арктик Бей (Нунавут, Канада) (777 км)
Погода в Понд-Инлете (Нунавут, Канада) (834 км)

Пояснения к столбцам:

Ветер - указаны скорость ветра в м/с - средняя за 10 мин, порывы в срок и между сроками (в фигурных скобках) и направление, откуда дует ветер: С - северный, СВ - северо-восточный, В - восточный, ЮВ - юго-восточный, Ю - южный, ЮЗ - юго-западный, З - западный, СЗ - северо-западный.
Видимость - горизонтальная дальность видимости в метрах или километрах. При видимости от 1 до 10 км при отсутствии осадков обычно наблюдается дымка, при ухудшении видимости до 1 км и менее - туман. В сухую погоду видимость может ухудшаться дымом, пылью или мглою.
Явления - указаны атмосферные явления, наблюдавшиеся в срок или в последний час перед сроком; фигурными скобками обозначены явления, наблюдавшиеся между сроками (за 1-3 часа до срока); квадратными скобками обозначены град или гололедные отложения с указанием их диаметра в мм.
Облачность - указаны через наклонную черту общая и нижняя облачность в баллах и высота нижней границы облаков в метрах; квадратными скобками обозначены формы облаков: Ci - перистые, Cs - перисто-слоистые, Cc - перисто-кучевые, Ac - высококучевые, As - высокослоистые, Sc - слоисто-кучевые, Ns - слоисто-дождевые, Cu - кучевые, Cb - кучево-дождевые. Подробнее классификацию облаков см. в Атласе облаков (PDF).
T - Температура воздуха - температура, измеренная на высоте 2 м над землей.
Td - Температура точки росы - температура, при понижении до которой содержащийся в воздухе водяной пар достигнет насыщения.
f - Относительная влажность воздуха - влажноcть воздуха, измеренная на высоте 2 м над землей.
Te - Эффективная температура - температура, которую ощущает одетый по сезону человек в тени. Характеристика душности погоды. При расчете учитывается влияние влажности воздуха и скорости ветра на теплоощущения человека.
Tes - Эффективная температура на солнце - температура, которую ощущает человек, с поправкой на солнечный нагрев. Характеристика знойности погоды. Зависит от высоты солнца над горизонтом, облачности и скорости ветра. Ночью, в пасмурную погоду, а также при ветре 12 м/с и более поправка равна нулю.
P - Атмосферное давление - приведенное к уровню моря атмосферное давление.
Po - Атмосферное давление - измеренное на уровне метеостанции атмосферное давление.
Tmin - Минимальная температура - минимум температуры воздуха на высоте 2 м над землей.
Tmax - Максимальная температура - максимум температуры воздуха на высоте 2 м над землей.
R - Количество осадков - Количество выпавших осадков за период времени, мм. При наведении курсора мыши на число - период времени, за который выпало указанное количество осадков.
R24 - Количество осадков - Количество выпавших осадков за 24 часа, мм.
S - Снежный покров - Высота снежного покрова, см. При наведении курсора мыши на число - состояние снежного покрова и степень покрытия местности в баллах.